TAP37CN LEBL-LPPT

Flight info

Callsign TAP37CN
Flight time 1h 34m
Altitude 37000
Route SENIA DCT DORMI DCT CRETA DCT NEXAS DCT DISVU DCT ADUXO N975 PALIO DCT AKOKI DCT GOTOR DCT TLD DCT NATPA DCT MELON DCT CCS DCT ELVAR DCT UPULO
Aircraft A321/M-SDE3FGHIRWY/LB1

Departure

Time 2026-05-06 16:40
Airport Josep Tarradellas Barcelona-El Prat Airport (LEBL)

Arrival

Time 2026-05-06 18:14
Airport Lisbon Humberto Delgado Airport (LPPT)
Time Latitude Longitude Altitude Speed Heading
2026-05-06 16:17 41.29153 2.07943 19 ft 0 kts 155°
2026-05-06 16:27 41.29154 2.07943 19 ft 0 kts 155°
2026-05-06 16:27 41.29165 2.07936 19 ft 3 kts 155°
2026-05-06 16:28 41.29184 2.07924 21 ft 3 kts 155°
2026-05-06 16:28 41.29199 2.07916 22 ft 3 kts 150°
2026-05-06 16:28 41.29212 2.07902 20 ft 3 kts 111°
2026-05-06 16:28 41.29215 2.07879 21 ft 3 kts 75°
2026-05-06 16:29 41.29210 2.07859 19 ft 3 kts 65°
2026-05-06 16:30 41.29210 2.07861 19 ft 2 kts 65°
2026-05-06 16:31 41.29226 2.07906 21 ft 9 kts 65°
2026-05-06 16:31 41.29253 2.07984 19 ft 9 kts 65°
2026-05-06 16:31 41.29286 2.08082 19 ft 16 kts 65°
2026-05-06 16:31 41.29340 2.08245 21 ft 20 kts 68°
2026-05-06 16:32 41.29360 2.08373 22 ft 12 kts 130°
2026-05-06 16:32 41.29290 2.08424 20 ft 11 kts 155°
2026-05-06 16:32 41.29224 2.08464 20 ft 11 kts 156°
2026-05-06 16:32 41.29123 2.08524 18 ft 21 kts 156°
2026-05-06 16:33 41.28990 2.08601 19 ft 20 kts 154°
2026-05-06 16:33 41.28904 2.08654 17 ft 21 kts 156°
2026-05-06 16:33 41.28881 2.08785 18 ft 11 kts 65°
2026-05-06 16:34 41.28933 2.08936 19 ft 10 kts 65°
2026-05-06 16:34 41.28976 2.09061 17 ft 19 kts 65°
2026-05-06 16:34 41.29041 2.09253 18 ft 24 kts 65°
2026-05-06 16:34 41.29107 2.09447 18 ft 23 kts 66°
2026-05-06 16:35 41.29172 2.09638 17 ft 22 kts 65°
2026-05-06 16:35 41.29236 2.09822 17 ft 22 kts 64°
2026-05-06 16:35 41.29327 2.10050 18 ft 20 kts 65°
2026-05-06 16:35 41.29366 2.10162 18 ft 17 kts 69°
2026-05-06 16:36 41.29336 2.10264 14 ft 7 kts 152°
2026-05-06 16:36 41.29327 2.10270 13 ft 0 kts 153°
2026-05-06 16:37 41.29324 2.10273 13 ft 3 kts 153°
2026-05-06 16:37 41.29274 2.10307 15 ft 10 kts 153°
2026-05-06 16:37 41.29224 2.10327 15 ft 5 kts 202°
2026-05-06 16:38 41.29216 2.10306 16 ft 1 kts 241°
2026-05-06 16:38 41.29215 2.10305 16 ft 0 kts 242°
2026-05-06 16:39 41.29213 2.10300 16 ft 4 kts 242°
2026-05-06 16:39 41.29153 2.10134 18 ft 48 kts 245°
2026-05-06 16:40 41.28915 2.09443 20 ft 113 kts 246°
2026-05-06 16:40 41.28519 2.08277 44 ft 159 kts 242°
2026-05-06 16:40 41.28054 2.06955 647 ft 157 kts 234°
2026-05-06 16:40 41.27242 2.06017 1298 ft 158 kts 201°
2026-05-06 16:41 41.26074 2.05828 1632 ft 180 kts 184°
2026-05-06 16:41 41.24762 2.05801 1959 ft 197 kts 183°
2026-05-06 16:41 41.23330 2.05779 2282 ft 214 kts 183°
2026-05-06 16:41 41.21824 2.05755 2889 ft 218 kts 183°
2026-05-06 16:42 41.20283 2.05729 3593 ft 220 kts 183°
2026-05-06 16:42 41.18758 2.05697 4266 ft 224 kts 184°
2026-05-06 16:42 41.17225 2.05383 5001 ft 226 kts 202°
2026-05-06 16:42 41.15765 2.04455 5534 ft 237 kts 209°
2026-05-06 16:43 41.14279 2.03436 6262 ft 241 kts 210°
2026-05-06 16:43 41.12783 2.02407 7042 ft 243 kts 210°
2026-05-06 16:43 41.11273 2.01370 7814 ft 245 kts 210°
2026-05-06 16:43 41.09753 2.00334 8599 ft 246 kts 210°
2026-05-06 16:44 41.08290 1.99155 9359 ft 246 kts 222°
2026-05-06 16:44 41.07159 1.97458 10045 ft 250 kts 239°
2026-05-06 16:44 41.06449 1.95256 10293 ft 271 kts 255°
2026-05-06 16:44 41.05947 1.92732 10466 ft 294 kts 255°
2026-05-06 16:45 41.05419 1.90011 10656 ft 314 kts 258°
2026-05-06 16:45 41.05287 1.87084 11184 ft 322 kts 270°
2026-05-06 16:45 41.05320 1.84100 11848 ft 326 kts 269°
2026-05-06 16:45 41.05346 1.81084 12532 ft 329 kts 269°
2026-05-06 16:46 41.05370 1.78035 13212 ft 333 kts 269°
2026-05-06 16:46 41.05392 1.74956 13869 ft 336 kts 269°
2026-05-06 16:46 41.05412 1.71846 14483 ft 339 kts 269°
2026-05-06 16:46 41.05433 1.68719 15138 ft 340 kts 269°
2026-05-06 16:47 41.05454 1.65583 15791 ft 341 kts 268°
2026-05-06 16:47 41.05473 1.62433 16433 ft 342 kts 268°
2026-05-06 16:47 41.05492 1.59268 17071 ft 344 kts 268°
2026-05-06 16:47 41.05511 1.56094 17689 ft 345 kts 268°
2026-05-06 16:48 41.05448 1.52915 18269 ft 345 kts 261°
2026-05-06 16:48 41.04942 1.49815 18786 ft 345 kts 251°
2026-05-06 16:48 41.04221 1.46776 19310 ft 346 kts 251°
2026-05-06 16:48 41.03504 1.43731 19823 ft 347 kts 251°
2026-05-06 16:49 41.02787 1.40674 20324 ft 348 kts 251°
2026-05-06 16:49 41.02066 1.37610 20813 ft 349 kts 251°
2026-05-06 16:49 41.01342 1.34538 21296 ft 350 kts 251°
2026-05-06 16:49 41.00617 1.31465 21769 ft 351 kts 251°
2026-05-06 16:50 40.99891 1.28378 22250 ft 352 kts 251°
2026-05-06 16:50 40.99163 1.25282 22710 ft 353 kts 251°
2026-05-06 16:50 40.98432 1.22180 23181 ft 353 kts 251°
2026-05-06 16:50 40.97695 1.19070 23619 ft 355 kts 251°
2026-05-06 16:51 40.96954 1.15960 24014 ft 355 kts 251°
2026-05-06 16:51 40.96209 1.12833 24417 ft 356 kts 251°
2026-05-06 16:51 40.95464 1.09699 24817 ft 357 kts 251°
2026-05-06 16:51 40.94721 1.06568 25225 ft 358 kts 251°
2026-05-06 16:52 40.93972 1.03427 25609 ft 358 kts 251°
2026-05-06 16:52 40.93211 1.00239 26029 ft 359 kts 251°
2026-05-06 16:52 40.92457 0.97089 26436 ft 360 kts 251°
2026-05-06 16:52 40.91701 0.93931 26815 ft 361 kts 251°
2026-05-06 16:53 40.90945 0.90767 27196 ft 361 kts 251°
2026-05-06 16:53 40.90185 0.87595 27575 ft 362 kts 251°
2026-05-06 16:53 40.89421 0.84422 27963 ft 363 kts 251°
2026-05-06 16:53 40.88652 0.81245 28330 ft 364 kts 251°
2026-05-06 16:54 40.87880 0.78058 28681 ft 365 kts 251°
2026-05-06 16:54 40.87178 0.74835 29016 ft 367 kts 256°
2026-05-06 16:54 40.86896 0.71465 29357 ft 372 kts 265°
2026-05-06 16:54 40.86930 0.68034 29699 ft 374 kts 266°
2026-05-06 16:55 40.86963 0.64591 30011 ft 375 kts 266°
2026-05-06 16:55 40.86988 0.61141 30237 ft 377 kts 266°
2026-05-06 16:55 40.87007 0.57672 30456 ft 379 kts 266°
2026-05-06 16:55 40.87023 0.54184 30667 ft 381 kts 266°
2026-05-06 16:56 40.87039 0.50677 30861 ft 383 kts 266°
2026-05-06 16:56 40.87055 0.47148 31066 ft 384 kts 266°
2026-05-06 16:56 40.87072 0.43617 31330 ft 385 kts 266°
2026-05-06 16:56 40.87090 0.40082 31563 ft 385 kts 266°
2026-05-06 16:57 40.87109 0.36544 31802 ft 386 kts 266°
2026-05-06 16:57 40.87131 0.32996 32051 ft 387 kts 266°
2026-05-06 16:57 40.87150 0.29439 32329 ft 387 kts 266°
2026-05-06 16:57 40.87167 0.25886 32589 ft 387 kts 266°
2026-05-06 16:58 40.87179 0.22328 32835 ft 388 kts 266°
2026-05-06 16:58 40.87190 0.18766 33095 ft 388 kts 266°
2026-05-06 16:58 40.87200 0.15199 33357 ft 388 kts 266°
2026-05-06 16:58 40.87208 0.11631 33579 ft 389 kts 266°
2026-05-06 16:59 40.87216 0.08054 33836 ft 389 kts 266°
2026-05-06 16:59 40.87225 0.04474 34065 ft 390 kts 267°
2026-05-06 16:59 40.87236 0.00894 34265 ft 390 kts 267°
2026-05-06 16:59 40.87246 -0.02696 34476 ft 391 kts 267°
2026-05-06 17:00 40.87256 -0.06283 34675 ft 391 kts 267°
2026-05-06 17:00 40.87261 -0.09877 34870 ft 392 kts 267°
2026-05-06 17:00 40.87263 -0.13480 35065 ft 392 kts 267°
2026-05-06 17:00 40.87262 -0.17084 35270 ft 393 kts 267°
2026-05-06 17:01 40.87260 -0.20741 35476 ft 393 kts 267°
2026-05-06 17:01 40.87259 -0.24352 35662 ft 393 kts 267°
2026-05-06 17:01 40.87257 -0.27965 35850 ft 394 kts 267°
2026-05-06 17:01 40.87255 -0.31582 36032 ft 394 kts 267°
2026-05-06 17:02 40.87253 -0.35200 36217 ft 394 kts 267°
2026-05-06 17:02 40.87250 -0.38822 36403 ft 394 kts 267°
2026-05-06 17:02 40.87245 -0.42450 36561 ft 395 kts 267°
2026-05-06 17:02 40.87238 -0.46081 36726 ft 395 kts 267°
2026-05-06 17:03 40.87228 -0.49720 36887 ft 396 kts 267°
2026-05-06 17:03 40.87208 -0.56981 36932 ft 394 kts 267°
2026-05-06 17:04 40.87181 -0.64232 36931 ft 397 kts 267°
2026-05-06 17:04 40.87147 -0.71500 36931 ft 398 kts 267°
2026-05-06 17:05 40.86947 -0.78801 36937 ft 396 kts 259°
2026-05-06 17:05 40.85333 -0.85734 36936 ft 396 kts 250°
2026-05-06 17:06 40.83741 -0.91453 36936 ft 396 kts 250°
2026-05-06 17:06 40.81849 -0.98292 36936 ft 397 kts 250°
2026-05-06 17:07 40.79949 -1.05130 36940 ft 397 kts 250°
2026-05-06 17:07 40.78043 -1.11970 36941 ft 397 kts 250°
2026-05-06 17:08 40.76295 -1.18881 36942 ft 397 kts 254°
2026-05-06 17:08 40.74872 -1.25921 36945 ft 397 kts 256°
2026-05-06 17:09 40.73480 -1.32983 36949 ft 397 kts 255°
2026-05-06 17:09 40.72021 -1.40022 36952 ft 397 kts 255°
2026-05-06 17:10 40.70523 -1.47049 36950 ft 397 kts 254°
2026-05-06 17:10 40.69016 -1.54053 36948 ft 397 kts 254°
2026-05-06 17:11 40.67515 -1.61061 36952 ft 397 kts 255°
2026-05-06 17:11 40.66013 -1.68072 36953 ft 398 kts 255°
2026-05-06 17:12 40.64506 -1.75083 36952 ft 398 kts 255°
2026-05-06 17:12 40.63000 -1.82084 36953 ft 398 kts 255°
2026-05-06 17:13 40.61488 -1.89094 36953 ft 398 kts 255°
2026-05-06 17:13 40.59959 -1.96090 36948 ft 398 kts 254°
2026-05-06 17:14 40.58426 -2.03083 36948 ft 398 kts 254°
2026-05-06 17:14 40.56899 -2.10078 36945 ft 398 kts 255°
2026-05-06 17:15 40.55372 -2.17076 36948 ft 398 kts 255°
2026-05-06 17:15 40.53837 -2.24073 36941 ft 398 kts 254°
2026-05-06 17:16 40.52294 -2.31069 36938 ft 399 kts 255°
2026-05-06 17:16 40.50741 -2.38061 36937 ft 399 kts 255°
2026-05-06 17:17 40.49187 -2.45056 36938 ft 399 kts 255°
2026-05-06 17:17 40.47630 -2.52051 36936 ft 399 kts 255°
2026-05-06 17:18 40.46057 -2.59090 36934 ft 399 kts 255°
2026-05-06 17:18 40.44486 -2.66087 36937 ft 399 kts 255°
2026-05-06 17:19 40.42917 -2.73078 36936 ft 400 kts 255°
2026-05-06 17:19 40.41344 -2.80071 36941 ft 400 kts 255°
2026-05-06 17:20 40.39757 -2.87063 36935 ft 400 kts 254°
2026-05-06 17:20 40.38170 -2.94047 36939 ft 400 kts 254°
2026-05-06 17:21 40.36578 -3.01035 36938 ft 400 kts 254°
2026-05-06 17:21 40.34988 -3.08018 36938 ft 400 kts 254°
2026-05-06 17:22 40.33390 -3.14997 36938 ft 400 kts 254°
2026-05-06 17:22 40.31780 -3.21973 36938 ft 400 kts 254°
2026-05-06 17:23 40.30170 -3.28951 36934 ft 400 kts 254°
2026-05-06 17:23 40.28564 -3.35922 36933 ft 400 kts 254°
2026-05-06 17:24 40.26949 -3.42899 36933 ft 400 kts 254°
2026-05-06 17:24 40.25317 -3.49879 36930 ft 401 kts 254°
2026-05-06 17:25 40.23691 -3.56854 36929 ft 401 kts 254°
2026-05-06 17:25 40.22064 -3.63829 36930 ft 401 kts 254°
2026-05-06 17:26 40.20423 -3.70810 36929 ft 401 kts 254°
2026-05-06 17:26 40.18768 -3.77839 36929 ft 402 kts 254°
2026-05-06 17:27 40.17116 -3.84836 36934 ft 406 kts 252°
2026-05-06 17:27 40.15435 -3.91909 36916 ft 409 kts 252°
2026-05-06 17:28 40.13742 -3.99026 36893 ft 411 kts 252°
2026-05-06 17:28 40.12046 -4.06158 36897 ft 412 kts 252°
2026-05-06 17:29 40.10339 -4.13302 36901 ft 412 kts 252°
2026-05-06 17:29 40.08625 -4.20458 36901 ft 413 kts 252°
2026-05-06 17:30 40.06902 -4.27612 36898 ft 413 kts 252°
2026-05-06 17:30 40.05173 -4.34769 36894 ft 414 kts 252°
2026-05-06 17:31 40.03436 -4.41936 36899 ft 414 kts 252°
2026-05-06 17:31 40.01692 -4.49101 36900 ft 414 kts 252°
2026-05-06 17:32 39.99954 -4.56266 36905 ft 414 kts 252°
2026-05-06 17:32 39.98202 -4.63429 36899 ft 415 kts 252°
2026-05-06 17:33 39.96442 -4.70591 36902 ft 415 kts 252°
2026-05-06 17:33 39.94679 -4.77752 36899 ft 415 kts 252°
2026-05-06 17:34 39.92918 -4.84922 36897 ft 415 kts 252°
2026-05-06 17:34 39.91154 -4.92083 36897 ft 415 kts 252°
2026-05-06 17:35 39.89360 -4.99290 36896 ft 416 kts 252°
2026-05-06 17:35 39.87575 -5.06457 36895 ft 416 kts 252°
2026-05-06 17:36 39.84887 -5.17195 36886 ft 416 kts 252°
2026-05-06 17:36 39.83092 -5.24355 36891 ft 416 kts 252°
2026-05-06 17:37 39.81295 -5.31514 36896 ft 416 kts 252°
2026-05-06 17:37 39.79804 -5.37466 36884 ft 416 kts 252°
2026-05-06 17:38 39.78000 -5.44620 36887 ft 416 kts 252°
2026-05-06 17:38 39.76184 -5.51771 36886 ft 416 kts 252°
2026-05-06 17:39 39.74363 -5.58913 36880 ft 417 kts 252°
2026-05-06 17:39 39.72522 -5.66106 36885 ft 417 kts 252°
2026-05-06 17:40 39.70697 -5.73249 36885 ft 417 kts 252°
2026-05-06 17:40 39.68864 -5.80394 36883 ft 417 kts 252°
2026-05-06 17:41 39.67029 -5.87534 36880 ft 417 kts 252°
2026-05-06 17:41 39.65190 -5.94676 36879 ft 417 kts 252°
2026-05-06 17:42 39.63345 -6.01807 36888 ft 417 kts 252°
2026-05-06 17:42 39.61493 -6.08941 36879 ft 417 kts 252°
2026-05-06 17:43 39.59639 -6.16071 36882 ft 417 kts 252°
2026-05-06 17:43 39.57776 -6.23200 36880 ft 417 kts 252°
2026-05-06 17:44 39.55910 -6.30321 36880 ft 417 kts 252°
2026-05-06 17:44 39.54034 -6.37432 36881 ft 417 kts 252°
2026-05-06 17:45 39.52057 -6.44496 36884 ft 417 kts 245°
2026-05-06 17:45 39.49473 -6.51233 36881 ft 418 kts 245°
2026-05-06 17:46 39.46895 -6.57975 36881 ft 418 kts 245°
2026-05-06 17:46 39.44316 -6.64708 36882 ft 418 kts 245°
2026-05-06 17:47 39.41730 -6.71438 36882 ft 418 kts 245°
2026-05-06 17:47 39.39119 -6.78203 36881 ft 418 kts 244°
2026-05-06 17:48 39.36526 -6.84916 36882 ft 418 kts 244°
2026-05-06 17:48 39.33923 -6.91630 36882 ft 418 kts 244°
2026-05-06 17:49 39.31312 -6.98337 36769 ft 421 kts 244°
2026-05-06 17:49 39.29987 -7.01746 36404 ft 422 kts 244°
2026-05-06 17:49 39.28674 -7.05123 35781 ft 421 kts 244°
2026-05-06 17:50 39.27374 -7.08459 35019 ft 421 kts 244°
2026-05-06 17:50 39.26054 -7.11833 34635 ft 412 kts 244°
2026-05-06 17:50 39.24755 -7.15150 33794 ft 415 kts 244°
2026-05-06 17:50 39.23451 -7.18476 32843 ft 418 kts 244°
2026-05-06 17:51 39.22156 -7.21781 32173 ft 415 kts 243°
2026-05-06 17:51 39.20855 -7.25079 31618 ft 410 kts 243°
2026-05-06 17:51 39.19547 -7.28326 31046 ft 406 kts 242°
2026-05-06 17:51 39.18237 -7.31531 30500 ft 402 kts 242°
2026-05-06 17:52 39.16928 -7.34703 29958 ft 398 kts 242°
2026-05-06 17:52 39.15633 -7.37837 29377 ft 394 kts 242°
2026-05-06 17:52 39.14356 -7.40928 28830 ft 387 kts 242°
2026-05-06 17:52 39.13098 -7.43979 28313 ft 382 kts 242°
2026-05-06 17:53 39.11864 -7.46986 27799 ft 376 kts 242°
2026-05-06 17:53 39.10652 -7.49943 27305 ft 370 kts 242°
2026-05-06 17:53 39.09462 -7.52847 26826 ft 363 kts 242°
2026-05-06 17:53 39.08291 -7.55698 26370 ft 357 kts 242°
2026-05-06 17:54 39.07136 -7.58502 25913 ft 351 kts 242°
2026-05-06 17:54 39.06000 -7.61255 25483 ft 346 kts 242°
2026-05-06 17:54 39.04878 -7.63969 25068 ft 341 kts 242°
2026-05-06 17:54 39.03777 -7.66663 24675 ft 342 kts 242°
2026-05-06 17:55 39.02683 -7.69476 24326 ft 357 kts 243°
2026-05-06 17:55 39.01604 -7.72335 23955 ft 360 kts 244°
2026-05-06 17:55 39.00517 -7.75249 23577 ft 360 kts 243°
2026-05-06 17:55 38.99311 -7.78069 23295 ft 362 kts 239°
2026-05-06 17:56 38.98005 -7.80882 22982 ft 369 kts 238°
2026-05-06 17:56 38.96659 -7.83701 22571 ft 369 kts 238°
2026-05-06 17:56 38.95308 -7.86495 22176 ft 367 kts 238°
2026-05-06 17:56 38.93961 -7.89280 21770 ft 366 kts 238°
2026-05-06 17:57 38.92625 -7.92052 21377 ft 364 kts 238°
2026-05-06 17:57 38.91296 -7.94813 20988 ft 362 kts 238°
2026-05-06 17:57 38.89977 -7.97567 20603 ft 360 kts 238°
2026-05-06 17:57 38.88670 -8.00299 20223 ft 359 kts 238°
2026-05-06 17:58 38.87366 -8.03019 19853 ft 357 kts 238°
2026-05-06 17:58 38.86065 -8.05733 19485 ft 355 kts 238°
2026-05-06 17:58 38.84776 -8.08431 19119 ft 354 kts 238°
2026-05-06 17:58 38.83491 -8.11118 18764 ft 352 kts 238°
2026-05-06 17:59 38.82210 -8.13790 18410 ft 351 kts 238°
2026-05-06 17:59 38.80930 -8.16452 18041 ft 349 kts 237°
2026-05-06 17:59 38.79659 -8.19088 17631 ft 347 kts 237°
2026-05-06 17:59 38.78429 -8.21692 17239 ft 344 kts 242°
2026-05-06 18:00 38.77816 -8.23602 16989 ft 343 kts 251°
2026-05-06 18:00 38.76840 -8.27487 16651 ft 350 kts 251°
2026-05-06 18:00 38.76093 -8.30469 16394 ft 352 kts 251°
2026-05-06 18:00 38.75349 -8.33457 16141 ft 352 kts 251°
2026-05-06 18:01 38.74603 -8.36451 15887 ft 350 kts 251°
2026-05-06 18:01 38.73862 -8.39416 15630 ft 349 kts 251°
2026-05-06 18:01 38.73123 -8.42370 15380 ft 348 kts 251°
2026-05-06 18:01 38.72384 -8.45320 15135 ft 346 kts 251°
2026-05-06 18:02 38.71649 -8.48255 14885 ft 345 kts 251°
2026-05-06 18:02 38.70917 -8.51178 14648 ft 344 kts 251°
2026-05-06 18:02 38.70184 -8.54089 14406 ft 343 kts 251°
2026-05-06 18:02 38.69450 -8.56986 14167 ft 341 kts 251°
2026-05-06 18:03 38.68717 -8.59880 13933 ft 341 kts 251°
2026-05-06 18:03 38.67990 -8.62765 13699 ft 340 kts 251°
2026-05-06 18:03 38.67263 -8.65643 13404 ft 339 kts 251°
2026-05-06 18:03 38.66539 -8.68510 12847 ft 337 kts 251°
2026-05-06 18:04 38.65830 -8.71325 12434 ft 335 kts 251°
2026-05-06 18:04 38.65112 -8.74161 12006 ft 334 kts 251°
2026-05-06 18:04 38.64385 -8.77015 11564 ft 333 kts 252°
2026-05-06 18:04 38.63678 -8.79793 11070 ft 328 kts 252°
2026-05-06 18:05 38.62982 -8.82523 10585 ft 320 kts 252°
2026-05-06 18:05 38.62297 -8.85210 10095 ft 312 kts 252°
2026-05-06 18:05 38.61638 -8.87793 9853 ft 298 kts 252°
2026-05-06 18:05 38.61006 -8.90266 9715 ft 287 kts 252°
2026-05-06 18:06 38.60388 -8.92685 9587 ft 285 kts 252°
2026-05-06 18:06 38.59769 -8.95101 9127 ft 286 kts 252°
2026-05-06 18:06 38.59148 -8.97524 8555 ft 284 kts 252°
2026-05-06 18:06 38.58538 -8.99899 8020 ft 278 kts 252°
2026-05-06 18:07 38.57940 -9.02224 7487 ft 272 kts 252°
2026-05-06 18:07 38.57359 -9.04476 6977 ft 268 kts 252°
2026-05-06 18:07 38.56783 -9.06712 6578 ft 259 kts 252°
2026-05-06 18:07 38.56233 -9.08835 6290 ft 244 kts 252°
2026-05-06 18:08 38.55712 -9.10849 5896 ft 234 kts 252°
2026-05-06 18:08 38.55215 -9.12794 5510 ft 226 kts 255°
2026-05-06 18:08 38.55110 -9.14730 5258 ft 213 kts 281°
2026-05-06 18:08 38.55634 -9.16432 5119 ft 202 kts 303°
2026-05-06 18:09 38.56385 -9.17944 4796 ft 202 kts 303°
2026-05-06 18:09 38.56885 -9.18947 4543 ft 202 kts 303°
2026-05-06 18:09 38.57662 -9.20464 4145 ft 205 kts 310°
2026-05-06 18:09 38.58703 -9.21646 3929 ft 196 kts 329°
2026-05-06 18:10 38.59938 -9.22282 3776 ft 190 kts 347°
2026-05-06 18:10 38.61242 -9.22375 3579 ft 188 kts
2026-05-06 18:10 38.62502 -9.21933 3362 ft 189 kts 19°
2026-05-06 18:10 38.63716 -9.21285 3110 ft 188 kts 18°
2026-05-06 18:11 38.64913 -9.20647 2866 ft 186 kts 19°
2026-05-06 18:11 38.66092 -9.20020 2616 ft 185 kts 19°
2026-05-06 18:11 38.67273 -9.19389 2379 ft 176 kts 18°
2026-05-06 18:11 38.68363 -9.18807 2140 ft 165 kts 18°
2026-05-06 18:12 38.69388 -9.18260 1919 ft 152 kts 18°
2026-05-06 18:12 38.70328 -9.17759 1731 ft 142 kts 18°
2026-05-06 18:12 38.71212 -9.17288 1534 ft 134 kts 17°
2026-05-06 18:12 38.72067 -9.16832 1362 ft 131 kts 17°
2026-05-06 18:13 38.72909 -9.16385 1166 ft 132 kts 16°
2026-05-06 18:13 38.73756 -9.15933 997 ft 131 kts 15°
2026-05-06 18:13 38.74603 -9.15480 814 ft 132 kts 18°
2026-05-06 18:13 38.75456 -9.15023 654 ft 134 kts 18°
2026-05-06 18:14 38.76313 -9.14560 459 ft 133 kts 17°
2026-05-06 18:14 38.77158 -9.14111 358 ft 125 kts 18°
2026-05-06 18:14 38.77821 -9.13761 365 ft 77 kts 22°
2026-05-06 18:14 38.78144 -9.13588 368 ft 34 kts 24°
2026-05-06 18:15 38.78307 -9.13442 364 ft 18 kts 45°
2026-05-06 18:15 38.78375 -9.13314 362 ft 16 kts 89°
2026-05-06 18:15 38.78304 -9.13273 363 ft 12 kts 198°
2026-05-06 18:15 38.78224 -9.13311 364 ft 12 kts 202°
2026-05-06 18:16 38.78147 -9.13354 358 ft 12 kts 204°
2026-05-06 18:16 38.78073 -9.13397 358 ft 11 kts 204°
2026-05-06 18:16 38.77984 -9.13445 363 ft 18 kts 204°
2026-05-06 18:16 38.77856 -9.13516 356 ft 15 kts 201°
2026-05-06 18:17 38.77755 -9.13566 359 ft 15 kts 202°
2026-05-06 18:17 38.77659 -9.13617 360 ft 14 kts 202°
2026-05-06 18:17 38.77554 -9.13676 363 ft 19 kts 204°
2026-05-06 18:17 38.77420 -9.13746 361 ft 21 kts 201°
2026-05-06 18:18 38.77311 -9.13797 358 ft 10 kts 178°
2026-05-06 18:18 38.77261 -9.13736 357 ft 14 kts 98°
2026-05-06 18:18 38.77280 -9.13592 354 ft 17 kts 77°
2026-05-06 18:18 38.77308 -9.13435 348 ft 17 kts 81°
2026-05-06 18:19 38.77229 -9.13352 345 ft 16 kts 168°
2026-05-06 18:19 38.77121 -9.13325 353 ft 15 kts 170°
2026-05-06 18:19 38.77029 -9.13279 338 ft 14 kts 122°
2026-05-06 18:19 38.77064 -9.13193 338 ft 13 kts
2026-05-06 18:20 38.77108 -9.13158 336 ft 7 kts 71°
2026-05-06 18:20 38.77112 -9.13135 336 ft 0 kts 79°
2026-05-06 18:20 38.77112 -9.13130 336 ft 1 kts 79°
2026-05-06 18:20 38.77113 -9.13124 337 ft 1 kts 79°
2026-05-06 18:21 38.77114 -9.13118 337 ft 1 kts 79°
2026-05-06 18:21 38.77115 -9.13116 337 ft 0 kts 79°